Simultaneous Nadir Overpasses (SNOs) Predictions

Prediction of SNOs between METOP-A and TERRA Satellite Orbit:

Table of predicted SNOs for the next 14.0 days since TLE Epoch: 6/22/2019
Index Date (METOP-A) Time (METOP-A) Lat,Lon (METOP-A) SZA (METOP-A ) Date (TERRA) Time (TERRA) Lat,Lon (TERRA) SZA (TERRA ) Distance(km) Time Diff (sec)
1 06/24/2019 08:31:27 -81.45, -77.58 118.80 06/24/2019 08:31:58 -81.46, -77.75 118.80 2.75 31
2 06/24/2019 09:22:08 81.45, 89.79 61.21 06/24/2019 09:21:25 81.44, 89.63 61.17 2.69 43
3 06/27/2019 04:05:51 -81.45, -11.25 118.74 06/27/2019 04:06:12 -81.45, -11.40 118.75 2.62 21
4 06/27/2019 04:56:31 81.44, 156.50 61.31 06/27/2019 04:55:38 81.45, 156.32 61.27 3.17 53
5 06/29/2019 23:40:14 -81.45, 55.08 118.63 06/29/2019 23:40:25 -81.44, 54.89 118.66 3.28 11
6 06/30/2019 00:30:55 81.45,-137.59 61.37 06/30/2019 00:29:51 81.45,-137.43 61.36 2.81 64
7 07/02/2019 18:23:58 81.45, -46.21 61.50 07/02/2019 18:25:11 81.45, -46.12 61.54 1.46 73
8 07/02/2019 19:14:38 -81.45, 121.40 118.48 07/02/2019 19:14:38 -81.45, 121.52 118.46 2.02 0
9 07/02/2019 20:05:16 81.44, -70.10 61.66 07/02/2019 20:04:02 81.49, -70.04 61.66 5.80 74
10 07/05/2019 13:58:21 81.45, 20.47 61.75 07/05/2019 13:59:24 81.46, 20.43 61.78 1.07 63




NCC Satellite Simultaneous Nadir Overpasses (SNOs) Prediction Service
